Home > Weather > East Hants > Past weeks

Flag for Canada Weather for the Past 2 Weeks in East Hants, Nova Scotia, Canada

Now
25 °F

Passing clouds.


Feels Like: 15 °F
Forecast: N/A
Wind: 10 mph from Southwest

Location: Halifax International Airport

Current Time: Feb 6, 2016 at 7:42:40 PM

Latest Report: Feb 6, 2016 at 7:00 PM


Visibility: 15 mi

Pressure: 30.26 "Hg

Humidity: 86%

Dew point: 21 °F

Location of East HantsLocation

Historic Weather in East Hants — Graph

°F

East Hants Temperature Yesterday

Maximum temperature yesterday: 43 °F (at 12:00 AM)
Minimum temperature yesterday: 28 °F (at 10:00 PM)
Average temperature yesterday: 36 °F

High & Low Weather Summary for the Past Weeks

 TemperatureHumidityPressure
High50 °F (Feb 4, 8:00 AM)100% (Jan 25, 2:00 AM)30.54 "Hg (Jan 25, 2:00 AM)
Low7 °F (Jan 23, 8:00 AM)40% (Feb 2, 3:00 PM)29.01 "Hg (Jan 29, 5:00 PM)
Average30 °F86%29.92 "Hg
* Reported Jan 22 6:00 PM — Feb 6 6:00 PM, East Hants, Weather by CustomWeather, © 2016

Note: Actual official high and low records may vary slightly from our data, if they occured in-between our weather recording intervals... More about our weather records

Advertising

East Hants Weather History for the Previous 24 Hours

 ConditionsComfort  
Time TempWeatherWind HumidityBarometerVisibility
6:00 PM
Sat, Feb 6
25 °FPassing clouds.7 mph86%30.25 "Hg15 mi
5:00 PM27 °FPartly sunny.9 mph80%30.24 "Hg15 mi
4:00 PM27 °FPartly sunny.10 mph74%30.23 "Hg15 mi
3:00 PM27 °FPartly sunny.12 mph74%30.21 "Hg15 mi
2:00 PM27 °FPassing clouds.12 mph74%30.19 "Hg15 mi
1:00 PM25 °FPassing clouds.8 mph80%30.19 "Hg15 mi
12:00 PM23 °FPassing clouds.13 mph80%30.19 "Hg15 mi
11:00 AM21 °FPassing clouds.14 mph80%30.17 "Hg15 mi
10:00 AM19 °FPassing clouds.16 mph86%30.16 "Hg15 mi
9:00 AM18 °FPassing clouds.18 mph86%30.13 "Hg15 mi
8:00 AM18 °FPassing clouds.17 mph86%30.10 "Hg15 mi
7:00 AM19 °FOvercast.16 mph100%30.05 "Hg15 mi
6:00 AM21 °FLight snow. Overcast.32 mph86%29.99 "Hg15 mi
5:00 AM21 °FLight snow. Overcast.21 mph93%29.94 "Hg12 mi
4:00 AM23 °FLight snow. Overcast.30 mph93%29.86 "Hg10 mi
3:49 AM23 °FLight snow. Overcast.28 mph93%29.84 "Hg10 mi
3:00 AM23 °FLight snow. Overcast.25 mph93%29.78 "Hg1 mi
2:47 AM23 °FLight snow. Overcast.26 mph100%29.77 "Hg1 mi
2:00 AM23 °FLight snow. Low clouds.23 mph100%29.68 "Hg1 mi
1:00 AM25 °FLight snow. Ice fog.31 mph100%29.64 "Hg1 mi
12:00 AM27 °FSleet. Ice fog.30 mph100%29.57 "Hg1 mi
11:00 PM
Fri, Feb 5
28 °FSleet. Ice fog.28 mph100%29.47 "Hg1 mi
10:00 PM28 °FSleet. Ice fog.23 mph100%29.54 "Hg1 mi
9:00 PM32 °FSleet. Ice fog.30 mph100%29.54 "Hg2 mi
8:00 PM32 °FLight freezing rain. Ice fog.18 mph100%29.59 "Hg1 mi
7:00 PM32 °FLight freezing rain. Ice fog.17 mph100%29.62 "Hg1 mi
Weather by CustomWeather, © 2016

See weather overviewHow to use our weather pages